TimeEDT,TemperatureF,Dew PointF,Humidity,Sea Level PressureIn,VisibilityMPH,Wind Direction,Wind SpeedMPH,Gust SpeedMPH,PrecipitationIn,Events,Conditions,WindDirDegrees,DateUTC
12:53 AM,66.9,64.9,93,30.00,8.0,Calm,Calm,-,0.00,,Partly Cloudy,0,2013-03-19 04:53:00
1:53 AM,66.9,64.9,93,29.96,8.0,South,9.2,-,N/A,,Mostly Cloudy,180,2013-03-19 05:53:00
2:53 AM,66.9,64.9,93,29.89,9.0,South,18.4,-,0.00,,Mostly Cloudy,190,2013-03-19 06:53:00
3:53 AM,68.0,66.0,93,29.87,9.0,South,13.8,24.2,N/A,,Partly Cloudy,180,2013-03-19 07:53:00
4:38 AM,68.0,66.2,94,29.90,8.0,SSW,11.5,-,N/A,,Scattered Clouds,200,2013-03-19 08:38:00
4:53 AM,68.0,66.0,93,29.90,8.0,SSW,12.7,-,N/A,,Mostly Cloudy,210,2013-03-19 08:53:00
5:11 AM,68.0,66.2,94,29.91,8.0,South,9.2,-,N/A,,Mostly Cloudy,190,2013-03-19 09:11:00
5:53 AM,66.9,64.9,93,29.93,8.0,SSW,5.8,-,N/A,,Clear,200,2013-03-19 09:53:00
6:53 AM,68.0,64.9,90,29.96,10.0,SW,9.2,-,N/A,,Clear,220,2013-03-19 10:53:00
7:53 AM,68.0,64.9,90,29.97,9.0,South,3.5,-,N/A,,Clear,180,2013-03-19 11:53:00
8:53 AM,68.0,64.9,90,29.99,9.0,NNE,5.8,-,N/A,,Clear,30,2013-03-19 12:53:00
9:53 AM,69.1,66.0,90,29.97,8.0,NNE,4.6,-,N/A,,Clear,30,2013-03-19 13:53:00
10:53 AM,70.0,64.9,84,30.00,9.0,NNE,6.9,-,N/A,,Clear,20,2013-03-19 14:53:00
11:53 AM,73.0,64.9,76,30.01,10.0,Calm,Calm,-,N/A,,Clear,0,2013-03-19 15:53:00
12:53 PM,73.9,64.0,71,30.02,10.0,ENE,3.5,-,N/A,,Clear,60,2013-03-19 16:53:00
1:53 PM,73.9,64.9,73,30.00,10.0,WSW,6.9,-,N/A,,Clear,240,2013-03-19 17:53:00
2:53 PM,73.9,64.0,71,29.98,10.0,WSW,6.9,-,N/A,,Clear,240,2013-03-19 18:53:00
3:53 PM,75.0,64.9,71,29.95,10.0,SSW,8.1,-,N/A,,Scattered Clouds,210,2013-03-19 19:53:00
4:53 PM,73.9,64.0,71,29.93,10.0,SW,11.5,-,N/A,,Clear,230,2013-03-19 20:53:00
5:53 PM,73.0,64.0,73,29.92,10.0,SW,11.5,-,N/A,,Clear,230,2013-03-19 21:53:00
6:53 PM,71.1,64.0,78,29.94,10.0,West,9.2,-,N/A,,Clear,270,2013-03-19 22:53:00
7:53 PM,69.1,64.9,87,29.96,9.0,West,5.8,-,N/A,,Clear,280,2013-03-19 23:53:00
8:53 PM,68.0,64.9,90,29.96,10.0,West,5.8,-,N/A,,Clear,270,2013-03-20 00:53:00
9:53 PM,68.0,64.9,90,29.98,10.0,NW,3.5,-,N/A,,Clear,320,2013-03-20 01:53:00
10:53 PM,66.9,64.9,93,29.98,10.0,Calm,Calm,-,N/A,,Clear,0,2013-03-20 02:53:00
11:53 PM,66.0,64.0,93,29.97,8.0,Calm,Calm,-,N/A,,Clear,0,2013-03-20 03:53:00